User: anonymous
Location: Unspecified
(0.0000°N, 0.0000°E)
Time: 00:07:53
(UTC+00:00)
Language:

PW SAT - Orbit

View from above orbital plane
View from above orbital plane
View from above satellite
View from above satellite

Ground track
Ground track

The orbit data is extracted from the following two-line orbital elements,

1 38083U 12006G   14110.52697143  .00206666  11612-4  24085-2 0  2035
2 38083 069.4482 128.5353 0355979 070.1622 293.7701 15.11356050115171
Epoch (UTC): 20 April 2014 12:38:50
Eccentricity: 0.0355979
inclination: 69.4482°
perigee height: 286 km
apogee height: 778 km
right ascension of ascending node: 128.5353°
argument of perigee: 70.1622°
revolutions per day: 15.11356050
mean anomaly at epoch: 293.7701°
orbit number at epoch: 11517

The dashed part of the orbit path shows where the satellite is in the earth's shadow,  

DLR